TAP238 LPMA-LPPT

Flight info

Callsign TAP238
Flight time 1h 17m
Altitude 38000
Route DEGUN DCT NARTA DCT ESUTI
Aircraft A339/H-SADE1E2E3GHIJ3J5M1P2RWXY/LB2D1

Departure

Time 2026-05-07 17:59
Airport Cristiano Ronaldo International Airport (LPMA)

Arrival

Time 2026-05-07 19:17
Airport Lisbon Humberto Delgado Airport (LPPT)
Time Latitude Longitude Altitude Speed Heading
2026-05-07 17:32 32.69517 -16.77444 182 ft 0 kts 138°
2026-05-07 17:52 32.69522 -16.77449 182 ft 4 kts 138°
2026-05-07 17:53 32.69542 -16.77470 182 ft 4 kts 139°
2026-05-07 17:53 32.69560 -16.77486 182 ft 4 kts 107°
2026-05-07 17:53 32.69567 -16.77508 182 ft 4 kts 69°
2026-05-07 17:53 32.69556 -16.77530 182 ft 4 kts 42°
2026-05-07 17:54 32.69546 -16.77541 182 ft 0 kts 46°
2026-05-07 17:55 32.69549 -16.77537 182 ft 2 kts 46°
2026-05-07 17:56 32.69572 -16.77507 182 ft 8 kts 46°
2026-05-07 17:56 32.69622 -16.77445 182 ft 13 kts 47°
2026-05-07 17:56 32.69696 -16.77348 182 ft 19 kts 50°
2026-05-07 17:56 32.69798 -16.77227 182 ft 23 kts 43°
2026-05-07 17:57 32.69945 -16.77180 182 ft 24 kts
2026-05-07 17:57 32.70094 -16.77089 182 ft 27 kts 40°
2026-05-07 17:57 32.70237 -16.76920 182 ft 31 kts 47°
2026-05-07 17:57 32.70398 -16.76736 182 ft 33 kts 43°
2026-05-07 17:58 32.70564 -16.76553 182 ft 29 kts 43°
2026-05-07 17:58 32.70686 -16.76467 182 ft 13 kts 60°
2026-05-07 17:58 32.70669 -16.76424 182 ft 2 kts 160°
2026-05-07 17:58 32.70636 -16.76452 182 ft 8 kts 214°
2026-05-07 17:59 32.70559 -16.76536 182 ft 33 kts 225°
2026-05-07 17:59 32.70193 -16.76969 182 ft 117 kts 224°
2026-05-07 17:59 32.69474 -16.77804 485 ft 155 kts 224°
2026-05-07 17:59 32.68557 -16.78532 1241 ft 168 kts 197°
2026-05-07 18:00 32.67404 -16.78266 2014 ft 185 kts 151°
2026-05-07 18:00 32.66244 -16.77421 2511 ft 206 kts 163°
2026-05-07 18:00 32.64798 -16.77070 3005 ft 221 kts 179°
2026-05-07 18:00 32.63197 -16.76950 3433 ft 241 kts 182°
2026-05-07 18:01 32.61444 -16.76815 3813 ft 261 kts 180°
2026-05-07 18:01 32.59621 -16.76584 4516 ft 266 kts 177°
2026-05-07 18:01 32.57781 -16.76249 5271 ft 271 kts 170°
2026-05-07 18:01 32.56055 -16.75247 5959 ft 284 kts 144°
2026-05-07 18:02 32.54226 -16.71087 7339 ft 299 kts 93°
2026-05-07 18:02 32.54503 -16.68653 8032 ft 301 kts 68°
2026-05-07 18:02 32.55556 -16.66583 8727 ft 298 kts 44°
2026-05-07 18:03 32.57057 -16.64886 9496 ft 298 kts 37°
2026-05-07 18:03 32.58598 -16.63232 10204 ft 303 kts 38°
2026-05-07 18:03 32.60133 -16.61405 10468 ft 324 kts 42°
2026-05-07 18:03 32.61683 -16.59337 10660 ft 346 kts 45°
2026-05-07 18:04 32.63249 -16.57089 11059 ft 359 kts 47°
2026-05-07 18:04 32.64853 -16.54754 11408 ft 369 kts 45°
2026-05-07 18:04 32.66667 -16.52588 12015 ft 370 kts 39°
2026-05-07 18:04 32.68538 -16.50458 12608 ft 374 kts 39°
2026-05-07 18:05 32.70418 -16.48309 13209 ft 378 kts 39°
2026-05-07 18:05 32.72295 -16.46163 13806 ft 381 kts 39°
2026-05-07 18:05 32.74242 -16.43937 14343 ft 385 kts 38°
2026-05-07 18:05 32.76146 -16.41758 14893 ft 388 kts 38°
2026-05-07 18:06 32.78104 -16.39518 15521 ft 392 kts 38°
2026-05-07 18:06 32.80074 -16.37262 16163 ft 395 kts 38°
2026-05-07 18:06 32.82061 -16.34987 16786 ft 400 kts 38°
2026-05-07 18:06 32.84084 -16.32676 17301 ft 408 kts 38°
2026-05-07 18:07 32.86138 -16.30322 17972 ft 411 kts 38°
2026-05-07 18:07 32.88210 -16.27945 18590 ft 415 kts 38°
2026-05-07 18:07 32.90297 -16.25549 19197 ft 419 kts 38°
2026-05-07 18:07 32.92397 -16.23135 19793 ft 423 kts 38°
2026-05-07 18:08 32.94495 -16.20724 20377 ft 427 kts 38°
2026-05-07 18:08 32.96641 -16.18255 20987 ft 430 kts 38°
2026-05-07 18:08 32.98804 -16.15766 21571 ft 434 kts 38°
2026-05-07 18:08 33.00981 -16.13260 22158 ft 439 kts 38°
2026-05-07 18:09 33.03188 -16.10716 22760 ft 442 kts 38°
2026-05-07 18:09 33.05408 -16.08156 23365 ft 446 kts 38°
2026-05-07 18:09 33.07648 -16.05571 23871 ft 451 kts 38°
2026-05-07 18:09 33.09918 -16.02951 24323 ft 456 kts 38°
2026-05-07 18:10 33.12203 -16.00311 24759 ft 460 kts 39°
2026-05-07 18:10 33.14519 -15.97638 25071 ft 469 kts 40°
2026-05-07 18:10 33.16897 -15.94891 25327 ft 478 kts 40°
2026-05-07 18:10 33.19282 -15.92125 25824 ft 478 kts 40°
2026-05-07 18:11 33.21670 -15.89352 26233 ft 481 kts 40°
2026-05-07 18:11 33.23264 -15.87501 26468 ft 484 kts 40°
2026-05-07 18:11 33.26517 -15.83722 26928 ft 489 kts 40°
2026-05-07 18:11 33.28929 -15.80919 27278 ft 493 kts 41°
2026-05-07 18:12 33.31399 -15.78047 27629 ft 497 kts 41°
2026-05-07 18:12 33.33882 -15.75156 27966 ft 500 kts 41°
2026-05-07 18:12 33.36381 -15.72245 28306 ft 504 kts 41°
2026-05-07 18:12 33.38900 -15.69309 28627 ft 507 kts 41°
2026-05-07 18:13 33.41433 -15.66353 28952 ft 510 kts 41°
2026-05-07 18:13 33.43991 -15.63396 29224 ft 514 kts 41°
2026-05-07 18:13 33.46627 -15.60436 29250 ft 523 kts 41°
2026-05-07 18:13 33.49303 -15.57452 29596 ft 526 kts 41°
2026-05-07 18:14 33.51939 -15.54507 30063 ft 526 kts 42°
2026-05-07 18:14 33.54610 -15.51509 30506 ft 525 kts 42°
2026-05-07 18:14 33.57272 -15.48514 30976 ft 524 kts 42°
2026-05-07 18:14 33.59919 -15.45528 31443 ft 523 kts 42°
2026-05-07 18:15 33.62572 -15.42532 31902 ft 522 kts 42°
2026-05-07 18:15 33.65206 -15.39554 32372 ft 521 kts 41°
2026-05-07 18:15 33.67843 -15.36570 32823 ft 520 kts 41°
2026-05-07 18:15 33.70470 -15.33593 33276 ft 519 kts 41°
2026-05-07 18:16 33.73097 -15.30615 33716 ft 518 kts 41°
2026-05-07 18:16 33.75713 -15.27647 34134 ft 518 kts 41°
2026-05-07 18:16 33.78332 -15.24673 34552 ft 517 kts 41°
2026-05-07 18:16 33.80929 -15.21722 35018 ft 513 kts 41°
2026-05-07 18:17 33.83492 -15.18807 35365 ft 513 kts 41°
2026-05-07 18:17 33.86080 -15.15860 35719 ft 513 kts 41°
2026-05-07 18:17 33.88672 -15.12905 36039 ft 513 kts 41°
2026-05-07 18:17 33.91259 -15.09953 36374 ft 513 kts 41°
2026-05-07 18:18 33.93850 -15.06994 36707 ft 513 kts 41°
2026-05-07 18:18 33.96437 -15.04037 37041 ft 512 kts 41°
2026-05-07 18:18 33.99021 -15.01080 37351 ft 512 kts 41°
2026-05-07 18:18 34.01603 -14.98124 37689 ft 512 kts 41°
2026-05-07 18:19 34.04182 -14.95169 37919 ft 513 kts 41°
2026-05-07 18:19 34.09356 -14.89237 37977 ft 514 kts 41°
2026-05-07 18:20 34.14513 -14.83309 37964 ft 511 kts 41°
2026-05-07 18:20 34.19626 -14.77421 37967 ft 512 kts 41°
2026-05-07 18:21 34.24784 -14.71473 37975 ft 512 kts 41°
2026-05-07 18:21 34.29924 -14.65534 37956 ft 512 kts 41°
2026-05-07 18:22 34.35124 -14.59517 37951 ft 524 kts 42°
2026-05-07 18:22 34.40542 -14.53455 37952 ft 535 kts 42°
2026-05-07 18:23 34.45952 -14.47325 37980 ft 537 kts 41°
2026-05-07 18:23 34.51464 -14.41141 37975 ft 542 kts 41°
2026-05-07 18:24 34.57027 -14.34915 37972 ft 546 kts 41°
2026-05-07 18:24 34.62606 -14.28657 37947 ft 547 kts 41°
2026-05-07 18:25 34.68188 -14.22381 37960 ft 545 kts 41°
2026-05-07 18:25 34.73750 -14.16114 37946 ft 546 kts 42°
2026-05-07 18:26 34.79324 -14.09820 37961 ft 548 kts 42°
2026-05-07 18:26 34.84876 -14.03538 37970 ft 549 kts 42°
2026-05-07 18:27 34.90467 -13.97202 37979 ft 549 kts 42°
2026-05-07 18:27 34.96053 -13.90858 37991 ft 549 kts 42°
2026-05-07 18:28 35.01638 -13.84505 37951 ft 548 kts 43°
2026-05-07 18:28 35.07213 -13.78151 37969 ft 548 kts 43°
2026-05-07 18:29 35.12784 -13.71784 37976 ft 549 kts 43°
2026-05-07 18:29 35.18344 -13.65420 37972 ft 549 kts 43°
2026-05-07 18:30 35.23921 -13.59024 37974 ft 549 kts 43°
2026-05-07 18:30 35.29447 -13.52674 37973 ft 549 kts 43°
2026-05-07 18:31 35.35003 -13.46278 37952 ft 549 kts 43°
2026-05-07 18:31 35.40578 -13.39847 37964 ft 550 kts 43°
2026-05-07 18:32 35.46146 -13.33409 37958 ft 551 kts 43°
2026-05-07 18:32 35.51725 -13.26947 37993 ft 551 kts 43°
2026-05-07 18:33 35.57266 -13.20517 37978 ft 551 kts 44°
2026-05-07 18:33 35.62824 -13.14054 37973 ft 550 kts 44°
2026-05-07 18:34 35.68387 -13.07573 37956 ft 551 kts 44°
2026-05-07 18:34 35.73945 -13.01082 37960 ft 551 kts 44°
2026-05-07 18:35 35.79504 -12.94578 37960 ft 552 kts 44°
2026-05-07 18:35 35.85027 -12.88105 37973 ft 551 kts 44°
2026-05-07 18:36 35.90575 -12.81586 37968 ft 550 kts 44°
2026-05-07 18:36 35.96110 -12.75071 37942 ft 550 kts 44°
2026-05-07 18:37 36.01646 -12.68541 37954 ft 550 kts 44°
2026-05-07 18:37 36.07178 -12.62002 37959 ft 551 kts 44°
2026-05-07 18:38 36.12672 -12.55497 37964 ft 551 kts 45°
2026-05-07 18:38 36.18200 -12.48936 37962 ft 550 kts 45°
2026-05-07 18:39 36.23714 -12.42378 37959 ft 550 kts 45°
2026-05-07 18:39 36.29224 -12.35812 37956 ft 549 kts 45°
2026-05-07 18:40 36.34728 -12.29239 37956 ft 550 kts 45°
2026-05-07 18:40 36.40198 -12.22696 37963 ft 550 kts 45°
2026-05-07 18:41 36.45691 -12.16108 37961 ft 549 kts 45°
2026-05-07 18:41 36.51185 -12.09506 37959 ft 549 kts 45°
2026-05-07 18:42 36.56665 -12.02907 37936 ft 548 kts 45°
2026-05-07 18:42 36.62141 -11.96299 37957 ft 548 kts 45°
2026-05-07 18:43 36.67624 -11.89671 37958 ft 549 kts 45°
2026-05-07 18:43 36.73051 -11.83095 37959 ft 549 kts 45°
2026-05-07 18:44 36.78529 -11.76444 37953 ft 549 kts 45°
2026-05-07 18:44 36.83999 -11.69788 37952 ft 550 kts 45°
2026-05-07 18:45 36.89475 -11.63112 37952 ft 550 kts 45°
2026-05-07 18:45 36.94945 -11.56428 37954 ft 550 kts 46°
2026-05-07 18:46 37.00375 -11.49779 37917 ft 551 kts 46°
2026-05-07 18:46 37.05842 -11.43071 37945 ft 550 kts 46°
2026-05-07 18:47 37.11304 -11.36354 37940 ft 550 kts 46°
2026-05-07 18:47 37.16762 -11.29627 37916 ft 549 kts 46°
2026-05-07 18:48 37.22209 -11.22902 37713 ft 551 kts 46°
2026-05-07 18:48 37.24938 -11.19526 37443 ft 552 kts 46°
2026-05-07 18:48 37.27638 -11.16182 37019 ft 552 kts 46°
2026-05-07 18:48 37.30372 -11.12794 36479 ft 553 kts 46°
2026-05-07 18:49 37.33104 -11.09403 35988 ft 554 kts 46°
2026-05-07 18:49 37.35846 -11.05997 35460 ft 555 kts 46°
2026-05-07 18:49 37.38604 -11.02567 34835 ft 557 kts 46°
2026-05-07 18:49 37.41359 -10.99138 34211 ft 558 kts 46°
2026-05-07 18:50 37.44155 -10.95771 33550 ft 560 kts 41°
2026-05-07 18:50 37.47170 -10.92676 32849 ft 556 kts 40°
2026-05-07 18:50 37.50164 -10.89590 32169 ft 553 kts 40°
2026-05-07 18:50 37.53082 -10.86577 31524 ft 553 kts 40°
2026-05-07 18:51 37.56065 -10.83502 30869 ft 553 kts 40°
2026-05-07 18:51 37.59039 -10.80439 30259 ft 552 kts 40°
2026-05-07 18:51 37.62019 -10.77369 29589 ft 552 kts 40°
2026-05-07 18:51 37.64992 -10.74306 28921 ft 553 kts 40°
2026-05-07 18:52 37.67964 -10.71240 28513 ft 548 kts 40°
2026-05-07 18:52 37.70880 -10.68230 27931 ft 536 kts 40°
2026-05-07 18:52 37.73743 -10.65271 27269 ft 527 kts 40°
2026-05-07 18:52 37.76530 -10.62386 26620 ft 522 kts 40°
2026-05-07 18:53 37.79313 -10.59503 25983 ft 514 kts 40°
2026-05-07 18:53 37.82078 -10.56633 25368 ft 515 kts 40°
2026-05-07 18:53 37.84841 -10.53763 25030 ft 512 kts 40°
2026-05-07 18:53 37.87581 -10.50916 24702 ft 511 kts 40°
2026-05-07 18:54 37.90322 -10.48064 24177 ft 509 kts 40°
2026-05-07 18:54 37.93046 -10.45229 23610 ft 503 kts 40°
2026-05-07 18:54 37.95738 -10.42423 22950 ft 498 kts 40°
2026-05-07 18:54 37.98393 -10.39654 22286 ft 492 kts 40°
2026-05-07 18:55 38.01022 -10.36909 21639 ft 487 kts 40°
2026-05-07 18:55 38.03630 -10.34182 21017 ft 482 kts 40°
2026-05-07 18:55 38.06165 -10.31530 20417 ft 478 kts 40°
2026-05-07 18:55 38.08719 -10.28854 19811 ft 473 kts 40°
2026-05-07 18:56 38.11242 -10.26210 19214 ft 469 kts 40°
2026-05-07 18:56 38.13744 -10.23584 18627 ft 464 kts 40°
2026-05-07 18:56 38.16212 -10.20992 18143 ft 459 kts 40°
2026-05-07 18:56 38.18661 -10.18418 17588 ft 455 kts 40°
2026-05-07 18:57 38.21091 -10.15864 17063 ft 449 kts 40°
2026-05-07 18:57 38.23480 -10.13351 16570 ft 441 kts 40°
2026-05-07 18:57 38.25803 -10.10905 16044 ft 427 kts 41°
2026-05-07 18:57 38.28043 -10.08544 15619 ft 411 kts 41°
2026-05-07 18:58 38.30200 -10.06267 15250 ft 395 kts 41°
2026-05-07 18:58 38.32255 -10.04097 14877 ft 381 kts 41°
2026-05-07 18:58 38.34258 -10.01979 14515 ft 368 kts 41°
2026-05-07 18:58 38.36196 -9.99928 14156 ft 356 kts 42°
2026-05-07 18:59 38.38074 -9.97939 13797 ft 345 kts 43°
2026-05-07 18:59 38.39617 -9.95746 13387 ft 322 kts 62°
2026-05-07 18:59 38.40432 -9.93193 12808 ft 304 kts 78°
2026-05-07 18:59 38.40987 -9.90610 12426 ft 307 kts 79°
2026-05-07 19:00 38.41555 -9.87974 12172 ft 308 kts 78°
2026-05-07 19:00 38.42146 -9.85347 11922 ft 305 kts 77°
2026-05-07 19:00 38.42743 -9.82797 11600 ft 297 kts 77°
2026-05-07 19:00 38.43340 -9.80290 11215 ft 294 kts 77°
2026-05-07 19:01 38.43925 -9.77838 10874 ft 291 kts 77°
2026-05-07 19:01 38.44511 -9.75378 10552 ft 288 kts 77°
2026-05-07 19:01 38.45079 -9.73001 10415 ft 272 kts 77°
2026-05-07 19:01 38.45619 -9.70739 10029 ft 265 kts 77°
2026-05-07 19:02 38.46149 -9.68492 9525 ft 262 kts 77°
2026-05-07 19:02 38.46668 -9.66284 9232 ft 262 kts 76°
2026-05-07 19:02 38.47193 -9.64045 8920 ft 262 kts 76°
2026-05-07 19:02 38.47714 -9.61836 8613 ft 259 kts 76°
2026-05-07 19:03 38.48228 -9.59656 8297 ft 259 kts 75°
2026-05-07 19:03 38.48749 -9.57449 8145 ft 256 kts 75°
2026-05-07 19:03 38.49232 -9.55281 8092 ft 257 kts 81°
2026-05-07 19:03 38.49166 -9.53046 7974 ft 252 kts 109°
2026-05-07 19:04 38.48316 -9.51160 7939 ft 245 kts 138°
2026-05-07 19:04 38.46953 -9.49899 7945 ft 242 kts 153°
2026-05-07 19:04 38.45468 -9.48890 7940 ft 241 kts 155°
2026-05-07 19:04 38.43985 -9.47873 7942 ft 242 kts 153°
2026-05-07 19:05 38.42537 -9.46775 7942 ft 243 kts 149°
2026-05-07 19:05 38.41286 -9.45391 7937 ft 243 kts 134°
2026-05-07 19:05 38.40294 -9.43601 7942 ft 243 kts 126°
2026-05-07 19:05 38.39378 -9.41776 7946 ft 245 kts 126°
2026-05-07 19:06 38.38461 -9.39984 7940 ft 244 kts 126°
2026-05-07 19:06 38.36606 -9.36373 7937 ft 245 kts 122°
2026-05-07 19:06 38.35975 -9.34344 7940 ft 249 kts 108°
2026-05-07 19:07 38.35649 -9.32171 7935 ft 250 kts 103°
2026-05-07 19:07 38.35334 -9.29990 7936 ft 250 kts 103°
2026-05-07 19:07 38.35002 -9.27823 7938 ft 250 kts 104°
2026-05-07 19:07 38.34662 -9.25655 7938 ft 250 kts 105°
2026-05-07 19:08 38.34446 -9.23457 7940 ft 253 kts 94°
2026-05-07 19:08 38.34647 -9.21218 7937 ft 255 kts 80°
2026-05-07 19:08 38.35070 -9.19026 7925 ft 257 kts 72°
2026-05-07 19:08 38.36061 -9.17128 7936 ft 263 kts 43°
2026-05-07 19:09 38.37614 -9.15988 7944 ft 262 kts 15°
2026-05-07 19:09 38.39432 -9.15866 7944 ft 259 kts 347°
2026-05-07 19:09 38.41110 -9.16537 7830 ft 256 kts 335°
2026-05-07 19:09 38.42755 -9.17428 7437 ft 258 kts 334°
2026-05-07 19:10 38.44404 -9.18264 7076 ft 250 kts 336°
2026-05-07 19:10 38.46052 -9.18990 6513 ft 251 kts 339°
2026-05-07 19:10 38.47728 -9.19637 5947 ft 250 kts 340°
2026-05-07 19:10 38.49365 -9.20223 5494 ft 241 kts 341°
2026-05-07 19:11 38.50970 -9.20783 5078 ft 236 kts 342°
2026-05-07 19:11 38.52540 -9.21333 4683 ft 233 kts 341°
2026-05-07 19:11 38.54095 -9.21885 4307 ft 230 kts 342°
2026-05-07 19:11 38.55596 -9.22413 4069 ft 221 kts 341°
2026-05-07 19:12 38.57034 -9.22917 4029 ft 207 kts 340°
2026-05-07 19:12 38.58371 -9.23323 4013 ft 191 kts 349°
2026-05-07 19:12 38.59666 -9.23251 3945 ft 187 kts
2026-05-07 19:12 38.60935 -9.22767 3721 ft 192 kts 17°
2026-05-07 19:13 38.62171 -9.22110 3464 ft 193 kts 19°
2026-05-07 19:13 38.63413 -9.21445 3212 ft 193 kts 18°
2026-05-07 19:13 38.64657 -9.20782 2941 ft 194 kts 18°
2026-05-07 19:13 38.65894 -9.20126 2693 ft 191 kts 19°
2026-05-07 19:14 38.67085 -9.19483 2430 ft 186 kts 18°
2026-05-07 19:14 38.68279 -9.18857 2145 ft 184 kts 18°
2026-05-07 19:14 38.69449 -9.18225 1881 ft 175 kts 18°
2026-05-07 19:14 38.70512 -9.17664 1690 ft 159 kts 18°
2026-05-07 19:15 38.71479 -9.17138 1455 ft 142 kts 15°
2026-05-07 19:15 38.72383 -9.16661 1276 ft 142 kts 15°
2026-05-07 19:15 38.73289 -9.16180 1078 ft 140 kts 18°
2026-05-07 19:15 38.74167 -9.15708 916 ft 137 kts 16°
2026-05-07 19:16 38.75081 -9.15225 685 ft 139 kts 18°
2026-05-07 19:16 38.75982 -9.14730 519 ft 142 kts 18°
2026-05-07 19:16 38.76585 -9.14413 382 ft 136 kts 15°
2026-05-07 19:16 38.77424 -9.13990 373 ft 121 kts 24°
2026-05-07 19:17 38.78053 -9.13649 375 ft 58 kts 22°
2026-05-07 19:17 38.78325 -9.13422 371 ft 26 kts 44°
2026-05-07 19:17 38.78361 -9.13299 370 ft 13 kts 111°
2026-05-07 19:17 38.78298 -9.13281 368 ft 11 kts 191°
2026-05-07 19:18 38.78218 -9.13315 367 ft 10 kts 202°
2026-05-07 19:18 38.78208 -9.13320 367 ft 3 kts 202°
2026-05-07 19:18 38.78180 -9.13336 367 ft 6 kts 203°
2026-05-07 19:18 38.78133 -9.13362 368 ft 9 kts 203°